Location: Newark
(30.1000°N, 109.4667°E)
Time: 11:18:44
(UTC+00:00)

Courier 1B Rocket - Pass Details

Date: 26 February 2020
Orbit: 920 x 1202 km, 28.2° (Epoch: 06 April)

Event Time Altitude Azimuth Distance (km) Brightness Sun altitude
Exits shadow 20:44:04 22° 167° (SSE) 2,034 6.6 -32.6°
Drops below altitude 10° 20:47:11 10° 146° (SE) 2,843 7.7 -31.9°
Sets 20:50:21 0° 135° (SE) 3,847 8.6 -31.2°
